Regional Weather Roundup
Issued by NWS Charleston, SC

Current Version | Previous Version | Graphics & Text | Print | Product List | Glossary On
Versions: 1 2 3 4 5 6 7 8 9 10 11 12 13 14 15 16 17 18 19 20 21 22 23 24 25 26 27 28 29 30 31 32 33 34 35 36 37 38 39 40 41 42 43 44 45 46 47 48 49 50
000 ASUS42 KCHS 291710 RWRCHS REGIONAL WEATHER ROUNDUP NATIONAL WEATHER SERVICE CHARLESTON SC 100 PM EDT FRI AUG 29 2014 NOTE: "FAIR" INDICATES FEW OR NO CLOUDS BELOW 12,000 FEET WITH NO SIGNIFICANT WEATHER AND/OR OBSTRUCTIONS TO VISIBILITY. NOT ALL STATIONS ARE QUALITY CONTROLLED BY THE NATIONAL WEATHER SERVICE. USE DATA WITH CAUTION...ESPECIALLY DEWPOINT OBSERVATIONS. SCZ027-030-031-034>040-042>050-291800- ...SOUTH CAROLINA... CITY SKY/WX TMP DP RH WIND PRES REMARKS N CHARLESTON PTSUNNY 89 71 55 S6 30.08F HX 95 WATERFRONT PRK N/A 86 N/A N/A E12 N/A FORT JOHNSON NOT AVBL MOUNT PLEASANT FAIR 88 75 66 S8 30.08F HX 97 JOHNS ISLAND MOSUNNY 86 75 70 CALM 30.09F HX 95 PINOPOLIS N/A 88 73 62 VRB2 30.01F HX 96 MONCKS CORNER N/A 90 73 58 CALM 30.08F HX 98 SUMMERVILLE FAIR 90 68 48 S3 30.09F HX 93 BEAUFORT MCAS SUNNY 90 67 46 S3 30.08F HX 93 BEAUFORT ARPT FAIR 86 68 54 SW3 30.08S HILTON HEAD IS MOSUNNY 84 73 70 NE6 30.09F HX 91 GEORGETOWN NOT AVBL WALTERBORO SUNNY 91 61 35 SE6 30.08F HX 91 ORANGEBURG SUNNY 92 58 31 VRB3 30.08F HX 91 BARNWELL FAIR 90 63 40 SE8 30.09S HX 90 AIKEN FAIR 91 64 40 S5 30.10F HX 93 MANNING FAIR 88 64 45 SE3 30.09F KINGSTREE NOT AVBL COLUMBIA MOSUNNY 93 62 35 E6 30.07F HX 93 SUMTER SUNNY 91 63 39 VRB7 30.07F HX 92 FLORENCE SUNNY 91 62 37 VRB5 30.09F HX 91 MYRTLE BEACH MOSUNNY 88 72 58 SE10 30.10F HX 94 N MYRTLE BEACH SUNNY 86 71 60 SE6 30.09F HX 91 $$ GAZ063-065-086>088-099>101-113>116-118-119-134-136>141-150-291800- ...GEORGIA... CITY SKY/WX TMP DP RH WIND PRES REMARKS SAVANNAH ARPT MOSUNNY 91 64 40 VRB3 30.07F HX 92 HUNTER AAF MOSUNNY 89 66 46 VRB3 30.05F HX 91 FORT STEWART PTSUNNY 91 63 39 VRB2 30.06F HX 92 STATESBORO NOT AVBL SYLVANIA SUNNY 86 67 51 S3 30.08F CLAXTON NOT AVBL THOMSON SUNNY 95 65 37 CALM 30.11F HX 98 AUGUSTA-BUSH SUNNY 91 61 36 E3 30.06F HX 91 AUGUSTA-DANIEL SUNNY 92 61 35 SE7 30.08F HX 92 SWAINSBORO FAIR 93 63 36 CALM 30.07F HX 94 VIDALIA N/A 91 64 40 E6 30.07F HX 93 ALMA SUNNY 91 61 36 SE9 30.07F HX 91 WAYCROSS SUNNY 95 66 38 NE3 30.06F HX 97 JESUP N/A 93 64 38 CALM 30.07S HX 95 BRUNSWICK MOSUNNY 90 64 43 CALM 30.07F HX 91 SAINT SIMONS SUNNY 85 75 72 E12 30.07F HX 93 $$ SCZ027-028-034-036>038-045-046-048>050-GAZ119-141-291800- ...LAKE AND SUPPLEMENTAL COASTAL OBSERVATIONS... STATION/POSITION TIME TEMP WIND PRES WAVE SWELL AIR SEA DIR/SP/G HT/PER HT/PER/DIR (UTC) (F) (DEG/KT/KT) (MB) (FT/S) (FT/S/D) UPR LAKE MARION NOT AVBL WINYAH BAY 1600 83 110/ 5 1019.0S LAKE MURRAY 1600 83 190/ 6/ 7 1018.3F ACE BASIN NERRS 1600 85 210/ 1 1019.0S FORT PULASKI 1700 85 90/ 3/ 4 1018.8F SAPELO ISLAND 1600 88 130/ 3 1019.0F $$ ANZ835-935-AMZ111-154-330-350-352-354-374-450-454-472-291800- ...C-MAN AND BUOY OBSERVATIONS... STATION/POSITION TIME TEMP WIND PRES WAVE SWELL AIR SEA DIR/SP/G HT/PER HT/PER/DIR (UTC) (F) (DEG/KT/KT) (MB) (FT/S) (FT/S/D) FOLLY BEACH CMAN 1600 82 100/ 6/ 7 1019.5F BUOY 41004 1700 83 85 CALM / 2 1018.7S 3/ 9 3/ 9 BUOY 41008 1700 82 85 50/ 6/ 8 1018.6F 3/ 9 3/ 90/ 9 5E ST. MARYS GA 1700 86 N/A 2/ 9 FRYING PAN BUOY NOT AVBL BUOY 41025 1700 80 280/ 6/ 6 1019.7F 3/ 8 3/ 50/ 8 CAPE LOOKOUT NC 1700 83 210/ 7/ 9 1019.4F BUOY 41002 1634 81 83 100/ 6/ 8 1021.0F 4/ 7 3/120/ 7 BUOY 41010 1700 78 83 350/ 10/ 12 1019.3R 3/ 8 3/110/ 8 BUOY 41012 NOT AVBL ST AUGUSTINE FL 1700 82 130/ 10/ 11 1018.8F CAPERS NEARSHORE 1600 82 80/ 8/ 8 N/A FRIPP NEARSHORE NOT AVBL $$

USA.gov is the U.S. government's official web portal to all federal, state and local government web resources and services.